Location: Unspecified
(0.0000°N, 0.0000°E)
Time: 06:32:51
(UTC+00:00)

Hubble Space Telescope - Pass Details

Date: 28 November 2020
Orbit: 536 x 540 km, 28.5° (Epoch: 03 December)

Event Time Altitude Azimuth Distance (km) Brightness Sun altitude
Exits shadow 05:14:58 - 281° (W) 1,850 2.9 -7.7°
Reaches altitude 10° 05:15:09 10° 280° (W) 1,780 2.8 -7.7°
Maximum altitude 05:19:01 39° 210° (SSW) 806 1.6 -6.8°
Drops below altitude 10° 05:22:54 10° 140° (SE) 1,786 4.6 -5.8°
Sets 05:25:16 0° 132° (SE) 2,679 5.9 -5.3°
